DW2613 Weather Reports


time (UTC)temp
C
wind
direction
speed
KPH
gust
KPH
rain 1hr
cm
rain 24hr
cm
rain mn
cm
humidity
%
barometer
mb
20260504150932 17 286 4.8 14.5 0.00 0.00 0.00 57 1014.9
20260504140906 16 273 6.4 16.1 0.00 0.00 0.00 62 1015.1
20260504130636 16 257 4.8 14.5 0.00 0.00 0.00 63 1015.5
20260504110414 13 272 4.8 16.1 0.00 0.00 0.00 69 1016.1
20260504081520 13 165 3.2 17.7 0.00 0.00 0.00 78 1016.2
20260504081333 13 188 3.2 14.5 0.00 0.00 0.00 78 1016.4
20260504080317 13 184 3.2 11.3 0.00 0.00 0.00 77 1016.5
20260504050018 12 126 1.6 11.3 0.00 0.00 0.00 67 1016.5
20260504045928 12 163 1.6 9.7 0.00 0.00 0.00 67 1016.7
20260504044908 12 90 0.0 6.4 0.00 0.00 0.00 67 1016.7
20260504044520 12 90 1.6 8.0 0.00 0.00 0.00 66 1016.5
20260504043859 12 185 0.0 6.4 0.00 0.00 0.00 67 1016.6
20260504043032 12 212 1.6 8.0 0.00 0.00 0.00 66 1016.3
20260504041754 12 271 1.6 8.0 0.00 0.00 0.00 68 1016.6
20260504041524 12 136 3.2 9.7 0.00 0.00 0.00 68 1016.4
20260504040731 12 220 1.6 12.9 0.00 0.00 0.00 67 1016.5
20260504040014 12 247 3.2 16.1 0.00 0.00 0.00 65 1016.3
20260504035742 12 105 1.6 12.9 0.00 0.00 0.00 65 1016.4
20260504034803 12 234 1.6 11.3 0.00 0.00 0.00 68 1016.3
20260504034515 11 290 1.6 12.9 0.00 0.00 0.00 68 1016.2
20260504033747 11 215 0.0 8.0 0.00 0.00 0.00 72 1016.3
20260504033021 10 263 0.0 4.8 0.00 0.00 0.00 72 1016.1
20260504032715 10 245 0.0 1.6 0.00 0.00 0.00 73 1016.1
20260504031700 10 245 0.0 0.0 0.00 0.00 0.00 73 1016.1
20260504031525 10 245 0.0 4.8 0.00 0.00 0.00 73 1016.0
20260504030655 9 286 0.0 1.6 0.00 0.00 0.00 77 1016.1
20260504030030 8 289 0.0 4.8 0.00 0.00 0.00 77 1016.0
20260504025627 8 297 0.0 1.6 0.00 0.00 0.00 77 1016.1
20260504024642 8 297 0.0 0.0 0.00 0.00 0.00 78 1016.0
20260504024516 8 297 0.0 3.2 0.00 0.00 0.00 78 1016.0
20260504023621 8 297 0.0 1.6 0.00 0.00 0.00 74 1015.9
20260504023021 8 297 0.0 1.6 0.00 0.00 0.00 74 1015.9
20260504022551 8 297 0.0 0.0 0.00 0.00 0.00 75 1016.0
20260504021524 8 297 0.0 3.2 0.00 0.00 0.00 77 1016.0
20260504020351 8 297 0.0 0.0 0.00 0.00 0.00 75 1015.9
20260504020027 8 297 0.0 0.0 0.00 0.00 0.00 73 1015.9
20260504015324 8 297 0.0 0.0 0.00 0.00 0.00 73 1015.9
20260504014536 8 297 0.0 1.6 0.00 0.00 0.00 75 1015.9
20260504014251 8 297 0.0 0.0 0.00 0.00 0.00 76 1015.9
20260504013240 8 297 0.0 0.0 0.00 0.00 0.00 76 1015.8
20260504013020 8 297 0.0 1.6 0.00 0.00 0.00 76 1015.8
20260504012304 8 297 0.0 0.0 0.00 0.00 0.00 75 1015.7
20260504011523 8 297 0.0 1.6 0.00 0.00 0.00 74 1015.7
20260504011301 9 297 0.0 0.0 0.00 0.00 0.00 74 1015.6
20260504010320 9 297 0.0 0.0 0.00 0.00 0.00 70 1015.6
20260504010026 9 297 0.0 0.0 0.00 0.00 0.00 65 1015.7
20260504005251 10 297 0.0 0.0 0.00 0.00 0.00 61 1015.4
20260504004528 10 297 0.0 0.0 0.00 0.00 0.00 57 1015.5
20260504004246 11 297 0.0 0.0 0.00 0.00 0.00 57 1015.4
20260504003215 11 297 0.0 0.0 0.00 0.00 0.00 55 1015.3
20260504003010 11 297 0.0 3.2 0.00 0.00 0.00 54 1015.4
20260504002216 12 297 0.0 1.6 0.00 0.00 0.00 52 1015.2
20260504001520 12 297 0.0 4.8 0.00 0.00 0.00 50 1015.2
20260504000028 13 297 0.0 1.6 0.00 0.00 0.00 45 1014.8
20260504000003 13 297 0.0 6.4 0.00 0.00 0.00 45 1015.0
20260503235035 14 288 1.6 4.8 0.00 0.00 0.00 45 1014.8
20260503234508 14 288 1.6 9.7 0.00 0.00 0.00 43 1014.9
20260503234055 14 282 1.6 6.4 0.00 0.00 0.00 43 1014.7
20260503233024 15 285 3.2 9.7 0.00 0.00 0.00 41 1014.7
20260503233010 15 284 4.8 12.9 0.00 0.00 0.00 41 1015.0
20260503231516 15 285 8.0 14.5 0.00 0.00 0.00 37 1015.0
20260503230018 15 255 9.7 17.7 0.00 0.00 0.00 36 1015.0
20260503225735 16 288 4.8 12.9 0.00 0.00 0.00 38 1014.7
20260503224717 16 280 6.4 12.9 0.00 0.00 0.00 37 1014.7
20260503224520 16 281 8.0 16.1 0.00 0.00 0.00 36 1015.0
20260503223707 16 288 6.4 16.1 0.00 0.00 0.00 35 1014.6
20260503223009 16 304 8.0 19.3 0.00 0.00 0.00 33 1014.9
20260503222721 16 338 6.4 16.1 0.00 0.00 0.00 34 1014.7
20260503221719 16 350 8.0 16.1 0.00 0.00 0.00 35 1014.6
20260503221513 16 285 11.3 20.9 0.00 0.00 0.00 34 1014.9
20260503220743 16 309 8.0 17.7 0.00 0.00 0.00 34 1014.7
20260503220024 16 279 8.0 20.9 0.00 0.00 0.00 33 1015.0
20260503215721 16 283 6.4 17.7 0.00 0.00 0.00 34 1014.7
20260503214715 16 309 12.9 22.5 0.00 0.00 0.00 33 1014.7
20260503214525 15 336 16.1 25.7 0.00 0.00 0.00 33 1015.1
20260503213722 16 303 11.3 22.5 0.00 0.00 0.00 34 1014.7
20260503213024 16 297 11.3 25.7 0.00 0.00 0.00 34 1014.9
20260503212717 16 355 9.7 22.5 0.00 0.00 0.00 35 1014.6
20260503211511 15 311 9.7 25.7 0.00 0.00 0.00 34 1014.8
20260503210530 16 277 6.4 22.5 0.00 0.00 0.00 34 1014.4
20260503210013 15 284 11.3 25.7 0.00 0.00 0.00 34 1014.9
20260503205555 16 338 9.7 22.5 0.00 0.00 0.00 35 1014.5
20260503204557 15 25 9.7 27.4 0.00 0.00 0.00 35 1014.5
20260503204521 15 321 8.0 29.0 0.00 0.00 0.00 34 1014.8
20260503203608 16 298 9.7 27.4 0.00 0.00 0.00 34 1014.6
20260503203023 15 341 14.5 30.6 0.00 0.00 0.00 33 1015.0
20260503202554 15 305 9.7 27.4 0.00 0.00 0.00 36 1014.6
20260503201614 15 336 11.3 27.4 0.00 0.00 0.00 36 1014.8
20260503201524 15 295 9.7 30.6 0.00 0.00 0.00 35 1015.1
20260503200607 15 266 8.0 22.5 0.00 0.00 0.00 35 1015.1
20260503200013 15 348 12.9 24.1 0.00 0.00 0.00 35 1015.3
20260503195617 15 340 11.3 22.5 0.00 0.00 0.00 36 1015.2
20260503194543 15 339 11.3 22.5 0.00 0.00 0.00 35 1015.4
20260503194521 15 18 9.7 25.7 0.00 0.00 0.00 35 1015.5
20260503193517 15 336 11.3 27.4 0.00 0.00 0.00 34 1015.4
20260503193020 15 310 12.9 30.6 0.00 0.00 0.00 33 1015.6
20260503191531 15 16 11.3 30.6 0.00 0.00 0.00 35 1015.7
20260503191301 15 275 12.9 27.4 0.00 0.00 0.00 33 1015.5
20260503190025 15 304 8.0 25.7 0.00 0.00 0.00 37 1015.7
20260503185154 15 289 11.3 25.7 0.00 0.00 0.00 35 1015.6
20260503184515 14 343 14.5 29.0 0.00 0.00 0.00 38 1015.8
20260503184128 14 321 11.3 25.7 0.00 0.00 0.00 36 1015.7
20260503183016 13 290 12.9 29.0 0.00 0.00 0.00 37 1015.9
20260503181917 14 0 11.3 33.8 0.00 0.00 0.00 38 1015.9
20260503181522 13 319 14.5 29.0 0.00 0.00 0.00 39 1016.1
20260503180941 13 338 12.9 33.8 0.00 0.00 0.00 37 1016.2
20260503180037 13 38 11.3 27.4 0.00 0.00 0.00 37 1016.2
20260503175944 13 302 11.3 27.4 0.00 0.00 0.00 37 1016.1
20260503175002 13 347 11.3 29.0 0.00 0.00 0.00 38 1016.2
20260503174525 13 244 16.1 30.6 0.00 0.00 0.00 36 1016.4
20260503173950 13 309 11.3 29.0 0.00 0.00 0.00 41 1016.3
20260503173014 13 272 11.3 32.2 0.00 0.00 0.00 38 1016.5
20260503172949 13 292 12.9 29.0 0.00 0.00 0.00 38 1016.4
20260503172010 12 278 14.5 29.0 0.00 0.00 0.00 36 1016.5
20260503171524 12 331 19.3 32.2 0.00 0.00 0.00 36 1016.5
20260503170938 13 340 9.7 27.4 0.00 0.00 0.00 41 1016.5